Location: Newark
(36.0797°N, 3.9744°E)
Time: 21:54:58
(UTC+00:00)

N. Korean satellite - Visible Passes

Search period start: 11 November 2019 00:00
Search period end: 21 November 2019 00:00
Orbit: 456 x 506 km, 97.2° (Epoch: 10 November)

Date Brightness Start Highest point End Pass type
(mag) Time Alt. Az. Time Alt. Az. Time Alt. Az.
11 Nov 9.3 04:54:54 10° NE 04:57:56 23° E 05:00:55 10° SSE visible
12 Nov 10.3 04:31:17 10° ENE 04:32:24 11° E 04:33:31 10° ESE visible
13 Nov 6.6 05:36:54 10° N 05:40:39 87° W 05:44:19 10° SSW visible
13 Nov 9.7 17:43:50 10° SW 17:46:22 18° W 17:48:57 10° NW visible
14 Nov 8.2 05:11:45 10° NNE 05:15:16 40° E 05:18:43 10° S visible
14 Nov 8.2 17:17:31 10° S 17:20:53 40° W 17:24:20 10° NNW visible
15 Nov 9.7 04:47:07 10° NE 04:49:47 19° E 04:52:25 10° SE visible
16 Nov 10.3 18:02:44 10° WSW 18:03:44 11° W 18:04:44 10° WNW visible
17 Nov 6.9 05:28:49 10° NNE 05:32:31 72° E 05:36:10 10° S visible
17 Nov 9.3 17:35:15 10° SSW 17:38:11 23° W 17:41:09 10° NW visible
18 Nov 8.7 05:03:47 10° NNE 05:07:06 31° E 05:10:22 10° SSE visible
18 Nov 7.6 17:09:12 10° S 17:12:43 52° W 17:16:19 10° NNW visible
19 Nov 10.0 04:39:27 10° ENE 04:41:34 15° E 04:43:41 10° SE visible
20 Nov 6.6 05:46:04 10° N 05:49:43 63° WNW 05:53:18 10° SSW visible
20 Nov 10.0 17:53:30 10° SW 17:55:29 14° W 17:57:31 10° WNW visible
